Time,TemperatureF,DewpointF,PressureIn,WindDirection,WindDirectionDegrees,WindSpeedMPH,WindSpeedGustMPH,Humidity,HourlyPrecipIn,Conditions,Clouds,dailyrainin,SoftwareType,DateUTC
2013-05-26 00:01:00,49.3,24.1,30.03,WSW,255,0.0,0.0,37,0.00,,---,0.00,VWS V14.01,2013-05-26 04:01:00,
2013-05-26 00:06:00,49.1,24.0,30.03,WSW,254,0.0,0.0,37,0.00,,---,0.00,VWS V14.01,2013-05-26 04:06:00,
2013-05-26 00:11:00,48.9,23.8,30.03,WSW,253,0.0,0.0,37,0.00,,---,0.00,VWS V14.01,2013-05-26 04:11:00,
2013-05-26 00:16:00,48.7,23.6,30.03,WSW,253,2.2,2.2,37,0.00,,---,0.00,VWS V14.01,2013-05-26 04:16:00,
2013-05-26 00:21:00,48.7,23.6,30.03,SW,223,0.0,0.0,37,0.00,,---,0.00,VWS V14.01,2013-05-26 04:21:00,
2013-05-26 00:26:00,48.7,23.6,30.03,SW,222,0.0,0.0,37,0.00,,---,0.00,VWS V14.01,2013-05-26 04:26:00,
2013-05-26 00:31:00,48.9,23.8,30.00,SW,222,0.0,0.0,37,0.00,,---,0.00,VWS V14.01,2013-05-26 04:31:00,
2013-05-26 00:36:00,48.7,23.6,30.00,SW,222,0.0,0.0,37,0.00,,---,0.00,VWS V14.01,2013-05-26 04:36:00,
2013-05-26 00:41:00,48.7,23.6,30.00,SW,222,0.0,0.0,37,0.00,,---,0.00,VWS V14.01,2013-05-26 04:41:00,
2013-05-26 00:46:00,48.9,23.8,30.00,SW,234,0.0,0.0,37,0.00,,---,0.00,VWS V14.01,2013-05-26 04:46:00,
2013-05-26 00:51:00,48.9,23.8,30.00,SW,234,0.0,0.0,37,0.00,,---,0.00,VWS V14.01,2013-05-26 04:51:00,
2013-05-26 00:56:00,48.7,23.6,30.00,SW,234,0.0,0.0,37,0.00,,---,0.00,VWS V14.01,2013-05-26 04:56:00,
2013-05-26 01:01:00,48.9,23.8,30.00,WSW,242,0.0,0.0,37,0.00,,---,0.00,VWS V14.01,2013-05-26 05:01:00,
2013-05-26 01:06:00,48.7,23.6,30.00,WSW,242,0.0,0.0,37,0.00,,---,0.00,VWS V14.01,2013-05-26 05:06:00,
2013-05-26 01:11:00,48.7,23.6,30.00,WSW,242,0.0,0.0,37,0.00,,---,0.00,VWS V14.01,2013-05-26 05:11:00,
2013-05-26 01:16:00,48.6,23.5,30.00,WSW,242,2.2,2.7,37,0.00,,---,0.00,VWS V14.01,2013-05-26 05:16:00,
2013-05-26 01:21:00,48.6,23.5,30.00,WSW,242,0.0,3.1,37,0.00,,---,0.00,VWS V14.01,2013-05-26 05:21:00,
2013-05-26 01:26:00,48.6,23.5,30.00,WSW,242,0.0,3.6,37,0.00,,---,0.00,VWS V14.01,2013-05-26 05:26:00,
2013-05-26 01:31:00,48.6,23.5,30.00,WSW,242,0.0,0.0,37,0.00,,---,0.00,VWS V14.01,2013-05-26 05:31:00,
2013-05-26 01:36:00,48.2,23.2,30.00,WSW,242,0.0,2.7,37,0.00,,---,0.00,VWS V14.01,2013-05-26 05:36:00,
2013-05-26 01:41:00,48.2,23.2,30.00,WSW,242,0.0,0.0,37,0.00,,---,0.00,VWS V14.01,2013-05-26 05:41:00,
2013-05-26 01:46:00,48.2,23.2,30.03,WSW,242,0.0,0.0,37,0.00,,---,0.00,VWS V14.01,2013-05-26 05:46:00,
2013-05-26 01:51:00,48.0,23.0,30.03,WSW,242,0.0,0.0,37,0.00,,---,0.00,VWS V14.01,2013-05-26 05:51:00,
2013-05-26 01:56:00,47.8,22.9,30.03,WSW,242,0.0,0.0,37,0.00,,---,0.00,VWS V14.01,2013-05-26 05:56:00,
2013-05-26 02:01:00,47.7,22.7,30.00,WSW,242,0.0,0.0,37,0.00,,---,0.00,VWS V14.01,2013-05-26 06:01:00,
2013-05-26 02:06:00,47.5,22.5,30.00,WSW,242,0.0,0.0,37,0.00,,---,0.00,VWS V14.01,2013-05-26 06:06:00,
2013-05-26 02:11:00,47.1,22.2,30.00,WSW,242,0.0,0.0,37,0.00,,---,0.00,VWS V14.01,2013-05-26 06:11:00,
2013-05-26 02:16:00,46.9,22.0,30.03,WSW,242,0.0,0.0,37,0.00,,---,0.00,VWS V14.01,2013-05-26 06:16:00,
2013-05-26 02:21:00,46.6,21.7,30.03,WSW,242,0.0,0.0,37,0.00,,---,0.00,VWS V14.01,2013-05-26 06:21:00,
2013-05-26 02:26:00,46.0,21.9,30.03,WSW,242,0.0,0.0,38,0.00,,---,0.00,VWS V14.01,2013-05-26 06:26:00,
2013-05-26 02:31:00,45.9,21.7,30.00,WSW,242,0.0,0.0,38,0.00,,---,0.00,VWS V14.01,2013-05-26 06:31:00,
2013-05-26 02:36:00,45.3,21.2,30.00,WSW,242,0.0,0.0,38,0.00,,---,0.00,VWS V14.01,2013-05-26 06:36:00,
2013-05-26 02:41:00,45.0,20.9,30.00,WSW,242,0.0,0.0,38,0.00,,---,0.00,VWS V14.01,2013-05-26 06:41:00,
2013-05-26 02:46:00,44.8,20.7,30.03,WSW,242,0.0,0.0,38,0.00,,---,0.00,VWS V14.01,2013-05-26 06:46:00,
2013-05-26 02:51:00,45.3,21.2,30.03,WSW,242,0.0,0.0,38,0.00,,---,0.00,VWS V14.01,2013-05-26 06:51:00,
2013-05-26 02:56:00,45.1,21.1,30.03,WSW,242,0.0,0.0,38,0.00,,---,0.00,VWS V14.01,2013-05-26 06:56:00,
2013-05-26 03:01:00,45.1,21.1,30.03,WSW,242,0.0,0.0,38,0.00,,---,0.00,VWS V14.01,2013-05-26 07:01:00,
2013-05-26 03:06:00,45.5,21.4,30.03,WSW,242,0.0,0.0,38,0.00,,---,0.00,VWS V14.01,2013-05-26 07:06:00,
2013-05-26 03:11:00,45.9,22.3,30.03,WSW,242,0.0,0.0,39,0.00,,---,0.00,VWS V14.01,2013-05-26 07:11:00,
2013-05-26 03:16:00,46.2,22.6,30.03,WSW,242,0.0,0.0,39,0.00,,---,0.00,VWS V14.01,2013-05-26 07:16:00,
2013-05-26 03:21:00,46.4,22.8,30.03,WSW,242,0.0,0.0,39,0.00,,---,0.00,VWS V14.01,2013-05-26 07:21:00,
2013-05-26 03:26:00,46.4,22.2,30.03,WSW,242,0.0,0.0,38,0.00,,---,0.00,VWS V14.01,2013-05-26 07:26:00,
2013-05-26 03:31:00,46.8,23.1,30.03,WSW,242,0.0,0.0,39,0.00,,---,0.00,VWS V14.01,2013-05-26 07:31:00,
2013-05-26 03:36:00,47.1,24.1,30.03,WSW,242,0.0,0.0,40,0.00,,---,0.00,VWS V14.01,2013-05-26 07:36:00,
2013-05-26 03:41:00,47.1,23.5,30.03,WSW,242,0.0,0.0,39,0.00,,---,0.00,VWS V14.01,2013-05-26 07:41:00,
2013-05-26 03:46:00,47.3,23.6,30.03,WSW,242,0.0,0.0,39,0.00,,---,0.00,VWS V14.01,2013-05-26 07:46:00,
2013-05-26 03:51:00,47.3,23.6,30.03,WSW,242,0.0,0.0,39,0.00,,---,0.00,VWS V14.01,2013-05-26 07:51:00,
2013-05-26 03:56:00,47.3,23.0,30.03,WSW,242,0.0,0.0,38,0.00,,---,0.00,VWS V14.01,2013-05-26 07:56:00,
2013-05-26 04:01:00,46.9,23.3,30.03,WSW,242,0.0,0.0,39,0.00,,---,0.00,VWS V14.01,2013-05-26 08:01:00,
2013-05-26 04:06:00,46.8,23.1,30.03,WSW,242,0.0,0.0,39,0.00,,---,0.00,VWS V14.01,2013-05-26 08:06:00,
2013-05-26 04:11:00,46.4,22.2,30.03,WSW,242,0.0,0.0,38,0.00,,---,0.00,VWS V14.01,2013-05-26 08:11:00,
2013-05-26 04:16:00,46.2,22.6,30.03,WSW,242,0.0,0.0,39,0.00,,---,0.00,VWS V14.01,2013-05-26 08:16:00,
2013-05-26 04:21:00,45.7,22.2,30.03,WSW,242,0.0,0.0,39,0.00,,---,0.00,VWS V14.01,2013-05-26 08:21:00,
2013-05-26 04:26:00,45.1,21.7,30.03,WSW,242,0.0,0.0,39,0.00,,---,0.00,VWS V14.01,2013-05-26 08:26:00,
2013-05-26 04:31:00,44.6,21.2,30.03,WSW,242,0.0,0.0,39,0.00,,---,0.00,VWS V14.01,2013-05-26 08:31:00,
2013-05-26 04:36:00,44.8,22.5,30.03,WSW,242,0.0,0.0,41,0.00,,---,0.00,VWS V14.01,2013-05-26 08:36:00,
2013-05-26 04:41:00,44.8,23.1,30.03,WSW,242,0.0,0.0,42,0.00,,---,0.00,VWS V14.01,2013-05-26 08:41:00,
2013-05-26 04:46:00,44.6,23.5,30.03,WSW,242,0.0,0.0,43,0.00,,---,0.00,VWS V14.01,2013-05-26 08:46:00,
2013-05-26 04:51:00,44.6,23.5,30.03,WSW,242,0.0,0.0,43,0.00,,---,0.00,VWS V14.01,2013-05-26 08:51:00,
2013-05-26 04:56:00,44.6,24.0,30.03,WSW,242,0.0,0.0,44,0.00,,---,0.00,VWS V14.01,2013-05-26 08:56:00,
2013-05-26 05:00:00,44.6,24.0,30.03,WSW,242,0.0,0.0,44,0.00,,---,0.00,VWS V14.01,2013-05-26 09:00:00,
2013-05-26 05:05:00,44.4,23.9,30.03,WSW,242,0.0,0.0,44,0.00,,---,0.00,VWS V14.01,2013-05-26 09:05:00,
2013-05-26 05:10:00,44.2,24.3,30.03,WSW,242,3.1,3.1,45,0.00,,---,0.00,VWS V14.01,2013-05-26 09:10:00,
2013-05-26 05:15:00,44.4,23.3,30.03,WSW,242,2.7,3.1,43,0.00,,---,0.00,VWS V14.01,2013-05-26 09:15:00,
2013-05-26 05:20:00,44.4,23.3,30.03,WSW,241,0.0,0.0,43,0.00,,---,0.00,VWS V14.01,2013-05-26 09:20:00,
2013-05-26 05:25:00,44.6,22.9,30.03,WSW,241,3.6,3.6,42,0.00,,---,0.00,VWS V14.01,2013-05-26 09:25:00,
2013-05-26 05:30:00,44.2,22.6,30.03,WSW,240,2.7,2.7,42,0.00,,---,0.00,VWS V14.01,2013-05-26 09:30:00,
2013-05-26 05:35:00,44.2,22.0,30.03,SW,235,3.1,3.1,41,0.00,,---,0.00,VWS V14.01,2013-05-26 09:35:00,
2013-05-26 05:40:00,44.2,22.0,30.03,SW,235,2.7,2.7,41,0.00,,---,0.00,VWS V14.01,2013-05-26 09:40:00,
2013-05-26 05:45:00,43.9,21.7,30.03,SW,235,2.2,2.7,41,0.00,,---,0.00,VWS V14.01,2013-05-26 09:45:00,
2013-05-26 05:50:00,43.7,22.1,30.03,SW,229,2.7,5.4,42,0.00,,---,0.00,VWS V14.01,2013-05-26 09:50:00,
2013-05-26 05:55:00,44.2,22.6,30.03,SW,235,3.1,3.1,42,0.00,,---,0.00,VWS V14.01,2013-05-26 09:55:00,
2013-05-26 06:00:00,44.6,21.8,30.06,SW,227,3.6,3.6,40,0.00,,---,0.00,VWS V14.01,2013-05-26 10:00:00,
2013-05-26 06:05:00,44.8,21.4,30.06,SW,227,3.6,4.5,39,0.00,,---,0.00,VWS V14.01,2013-05-26 10:05:00,
2013-05-26 06:10:00,45.1,21.1,30.06,SW,222,3.6,4.0,38,0.00,,---,0.00,VWS V14.01,2013-05-26 10:10:00,
2013-05-26 06:15:00,45.5,21.4,30.06,SW,221,3.1,4.0,38,0.00,,---,0.00,VWS V14.01,2013-05-26 10:15:00,
2013-05-26 06:20:00,46.2,22.0,30.06,SSW,213,3.1,3.1,38,0.00,,---,0.00,VWS V14.01,2013-05-26 10:20:00,
2013-05-26 06:25:00,46.4,22.2,30.06,SSW,213,2.7,3.1,38,0.00,,---,0.00,VWS V14.01,2013-05-26 10:25:00,
2013-05-26 06:30:00,46.8,21.9,30.06,SW,232,4.9,4.9,37,0.00,,---,0.00,VWS V14.01,2013-05-26 10:30:00,
2013-05-26 06:35:00,47.3,22.4,30.06,SSW,213,4.5,4.5,37,0.00,,---,0.00,VWS V14.01,2013-05-26 10:35:00,
2013-05-26 06:40:00,47.8,22.9,30.06,West,261,3.1,3.1,37,0.00,,---,0.00,VWS V14.01,2013-05-26 10:40:00,
2013-05-26 06:45:00,48.4,23.3,30.06,SW,214,5.8,5.8,37,0.00,,---,0.00,VWS V14.01,2013-05-26 10:45:00,
2013-05-26 06:50:00,48.7,23.6,30.06,SW,216,5.4,5.4,37,0.00,,---,0.00,VWS V14.01,2013-05-26 10:50:00,
2013-05-26 06:55:00,49.3,24.1,30.06,SW,230,5.4,5.4,37,0.00,,---,0.00,VWS V14.01,2013-05-26 10:55:00,
2013-05-26 07:00:00,49.5,24.3,30.06,SSW,210,6.3,6.7,37,0.00,,---,0.00,VWS V14.01,2013-05-26 11:00:00,
2013-05-26 07:05:00,49.6,24.5,30.06,SW,217,7.6,7.6,37,0.00,,---,0.00,VWS V14.01,2013-05-26 11:05:00,
2013-05-26 07:10:00,50.0,24.8,30.06,SW,222,4.0,4.0,37,0.00,,---,0.00,VWS V14.01,2013-05-26 11:10:00,
2013-05-26 07:15:00,50.0,24.8,30.06,WSW,239,2.2,5.4,37,0.00,,---,0.00,VWS V14.01,2013-05-26 11:15:00,
2013-05-26 07:20:00,50.2,24.9,30.06,WSW,237,2.7,4.9,37,0.00,,---,0.00,VWS V14.01,2013-05-26 11:20:00,
2013-05-26 07:25:00,50.4,25.1,30.06,SW,217,5.4,5.4,37,0.00,,---,0.00,VWS V14.01,2013-05-26 11:25:00,
2013-05-26 07:30:00,50.4,25.1,30.06,SW,236,6.3,6.3,37,0.00,,---,0.00,VWS V14.01,2013-05-26 11:30:00,
2013-05-26 07:35:00,50.5,25.2,30.06,SSW,193,7.6,7.6,37,0.00,,---,0.00,VWS V14.01,2013-05-26 11:35:00,
2013-05-26 07:40:00,50.7,25.4,30.06,West,277,6.3,6.3,37,0.00,,---,0.00,VWS V14.01,2013-05-26 11:40:00,
2013-05-26 07:45:00,50.9,25.6,30.06,SW,224,6.3,6.3,37,0.00,,---,0.00,VWS V14.01,2013-05-26 11:45:00,
2013-05-26 07:50:00,51.1,25.7,30.06,WSW,248,4.0,4.0,37,0.00,,---,0.00,VWS V14.01,2013-05-26 11:50:00,
2013-05-26 07:55:00,51.3,25.9,30.06,SSW,206,6.3,6.3,37,0.00,,---,0.00,VWS V14.01,2013-05-26 11:55:00,
2013-05-26 08:00:00,51.4,26.0,30.06,West,267,4.9,5.8,37,0.00,,---,0.00,VWS V14.01,2013-05-26 12:00:00,
2013-05-26 08:05:00,51.6,26.2,30.06,SW,225,5.4,5.8,37,0.00,,---,0.00,VWS V14.01,2013-05-26 12:05:00,
2013-05-26 08:10:00,51.8,25.7,30.06,SW,214,5.8,8.3,36,0.00,,---,0.00,VWS V14.01,2013-05-26 12:10:00,
2013-05-26 08:15:00,52.0,25.9,30.06,WSW,250,5.8,8.1,36,0.00,,---,0.00,VWS V14.01,2013-05-26 12:15:00,
2013-05-26 08:20:00,52.3,26.2,30.06,SSW,202,4.9,4.9,36,0.00,,---,0.00,VWS V14.01,2013-05-26 12:20:00,
2013-05-26 08:25:00,52.7,26.5,30.06,WSW,254,2.2,2.7,36,0.00,,---,0.00,VWS V14.01,2013-05-26 12:25:00,
2013-05-26 08:30:00,53.1,26.8,30.06,SW,214,0.0,4.0,36,0.00,,---,0.00,VWS V14.01,2013-05-26 12:30:00,
2013-05-26 08:35:00,53.2,27.0,30.06,WSW,242,2.7,7.6,36,0.00,,---,0.00,VWS V14.01,2013-05-26 12:35:00,
2013-05-26 08:40:00,53.6,27.3,30.06,SW,220,2.7,2.7,36,0.00,,---,0.00,VWS V14.01,2013-05-26 12:40:00,
2013-05-26 08:45:00,54.0,27.6,30.06,SSW,213,3.1,5.8,36,0.00,,---,0.00,VWS V14.01,2013-05-26 12:45:00,
2013-05-26 08:50:00,54.1,27.8,30.06,SW,232,0.0,3.6,36,0.00,,---,0.00,VWS V14.01,2013-05-26 12:50:00,
2013-05-26 08:55:00,54.3,28.0,30.06,SW,222,6.3,6.3,36,0.00,,---,0.00,VWS V14.01,2013-05-26 12:55:00,
2013-05-26 09:00:00,54.5,28.1,30.06,SW,234,3.1,4.9,36,0.00,,---,0.00,VWS V14.01,2013-05-26 13:00:00,
2013-05-26 09:05:00,54.9,28.4,30.06,WSW,243,5.8,6.7,36,0.00,,---,0.00,VWS V14.01,2013-05-26 13:05:00,
2013-05-26 09:10:00,55.0,28.6,30.06,SW,224,3.1,3.6,36,0.00,,---,0.00,VWS V14.01,2013-05-26 13:10:00,
2013-05-26 09:15:00,55.4,28.2,30.06,WSW,245,3.1,5.4,35,0.00,,---,0.00,VWS V14.01,2013-05-26 13:15:00,
2013-05-26 09:20:00,55.8,28.5,30.06,WNW,283,5.4,5.4,35,0.00,,---,0.00,VWS V14.01,2013-05-26 13:20:00,
2013-05-26 09:25:00,55.9,28.7,30.06,SW,224,4.0,4.0,35,0.00,,---,0.00,VWS V14.01,2013-05-26 13:25:00,
2013-05-26 09:30:00,56.3,29.0,30.06,WSW,246,5.4,7.6,35,0.00,,---,0.00,VWS V14.01,2013-05-26 13:30:00,
2013-05-26 09:35:00,56.3,29.0,30.06,WSW,243,3.1,4.0,35,0.00,,---,0.00,VWS V14.01,2013-05-26 13:35:00,
2013-05-26 09:40:00,56.7,29.3,30.06,WSW,240,3.6,3.6,35,0.00,,---,0.00,VWS V14.01,2013-05-26 13:40:00,
2013-05-26 09:45:00,56.8,29.5,30.06,West,277,4.0,6.3,35,0.00,,---,0.00,VWS V14.01,2013-05-26 13:45:00,
2013-05-26 09:50:00,56.8,29.5,30.06,SW,222,0.0,3.1,35,0.00,,---,0.00,VWS V14.01,2013-05-26 13:50:00,
2013-05-26 09:55:00,57.2,29.8,30.06,SW,214,6.3,6.3,35,0.00,,---,0.00,VWS V14.01,2013-05-26 13:55:00,
2013-05-26 10:00:00,57.6,30.1,30.06,SSW,207,5.8,6.3,35,0.00,,---,0.00,VWS V14.01,2013-05-26 14:00:00,
2013-05-26 10:05:00,57.6,30.1,30.06,West,266,3.1,10.5,35,0.00,,---,0.00,VWS V14.01,2013-05-26 14:05:00,
2013-05-26 10:10:00,58.3,30.8,30.06,SW,218,6.3,6.3,35,0.00,,---,0.00,VWS V14.01,2013-05-26 14:10:00,
2013-05-26 10:15:00,58.6,31.1,30.06,NW,321,6.3,6.3,35,0.00,,---,0.00,VWS V14.01,2013-05-26 14:15:00,
2013-05-26 10:20:00,58.5,30.9,30.06,West,272,3.1,5.4,35,0.00,,---,0.00,VWS V14.01,2013-05-26 14:20:00,
2013-05-26 10:25:00,59.2,31.6,30.06,SW,216,5.8,5.8,35,0.00,,---,0.00,VWS V14.01,2013-05-26 14:25:00,
2013-05-26 10:30:00,59.0,31.4,30.06,West,276,2.7,5.4,35,0.00,,---,0.00,VWS V14.01,2013-05-26 14:30:00,
2013-05-26 10:35:00,59.2,31.6,30.06,West,272,5.4,5.4,35,0.00,,---,0.00,VWS V14.01,2013-05-26 14:35:00,
2013-05-26 10:40:00,59.5,31.9,30.06,NNE,29,2.7,8.7,35,0.00,,---,0.00,VWS V14.01,2013-05-26 14:40:00,
2013-05-26 10:45:00,59.9,32.2,30.06,ENE,78,2.7,5.4,35,0.00,,---,0.00,VWS V14.01,2013-05-26 14:45:00,
2013-05-26 10:50:00,60.1,32.4,30.06,ESE,118,2.7,3.1,35,0.00,,---,0.00,VWS V14.01,2013-05-26 14:50:00,
2013-05-26 10:55:00,60.6,32.8,30.06,West,268,3.1,5.4,35,0.00,,---,0.00,VWS V14.01,2013-05-26 14:55:00,
2013-05-26 11:00:00,61.0,32.4,30.06,ENE,77,2.7,5.4,34,0.00,,---,0.00,VWS V14.01,2013-05-26 15:00:00,
2013-05-26 11:05:00,61.0,32.4,30.06,SSE,166,2.2,4.0,34,0.00,,---,0.00,VWS V14.01,2013-05-26 15:05:00,
2013-05-26 11:10:00,61.7,33.1,30.06,SSW,213,5.8,8.3,34,0.00,,---,0.00,VWS V14.01,2013-05-26 15:10:00,
2013-05-26 11:15:00,61.5,32.9,30.06,North,3,2.2,4.9,34,0.00,,---,0.00,VWS V14.01,2013-05-26 15:15:00,
2013-05-26 11:20:00,62.1,33.4,30.06,SW,215,0.0,2.7,34,0.00,,---,0.00,VWS V14.01,2013-05-26 15:20:00,
2013-05-26 11:25:00,62.4,33.7,30.06,SW,226,3.1,5.4,34,0.00,,---,0.00,VWS V14.01,2013-05-26 15:25:00,
2013-05-26 11:30:00,62.8,34.0,30.03,SSW,205,8.7,9.2,34,0.00,,---,0.00,VWS V14.01,2013-05-26 15:30:00,
2013-05-26 11:35:00,62.6,33.9,30.03,SW,224,8.3,8.3,34,0.00,,---,0.00,VWS V14.01,2013-05-26 15:35:00,
2013-05-26 11:40:00,63.0,34.2,30.03,SSW,212,3.6,8.7,34,0.00,,---,0.00,VWS V14.01,2013-05-26 15:40:00,
2013-05-26 11:45:00,63.0,34.2,30.06,SW,223,3.6,5.4,34,0.00,,---,0.00,VWS V14.01,2013-05-26 15:45:00,
2013-05-26 11:50:00,63.3,34.5,30.06,SSW,210,5.4,6.3,34,0.00,,---,0.00,VWS V14.01,2013-05-26 15:50:00,
2013-05-26 11:55:00,63.3,34.5,30.06,WSW,246,4.9,7.6,34,0.00,,---,0.00,VWS V14.01,2013-05-26 15:55:00,
2013-05-26 12:00:00,63.7,34.8,30.06,SSW,213,4.0,4.0,34,0.00,,---,0.00,VWS V14.01,2013-05-26 16:00:00,
2013-05-26 12:05:00,64.6,34.8,30.06,NW,319,0.0,2.2,33,0.00,,---,0.00,VWS V14.01,2013-05-26 16:05:00,
2013-05-26 12:10:00,64.6,34.8,30.06,SSW,210,8.3,8.7,33,0.00,,---,0.00,VWS V14.01,2013-05-26 16:10:00,
2013-05-26 12:15:00,63.9,35.0,30.06,SW,233,7.6,10.1,34,0.00,,---,0.00,VWS V14.01,2013-05-26 16:15:00,
2013-05-26 12:20:00,63.5,34.7,30.06,NE,39,0.0,3.6,34,0.00,,---,0.00,VWS V14.01,2013-05-26 16:20:00,
2013-05-26 12:25:00,64.4,34.7,30.06,NW,314,2.7,5.4,33,0.00,,---,0.00,VWS V14.01,2013-05-26 16:25:00,
2013-05-26 12:30:00,64.4,34.7,30.06,SW,229,4.0,4.0,33,0.00,,---,0.00,VWS V14.01,2013-05-26 16:30:00,
2013-05-26 12:35:00,64.4,34.7,30.06,North,350,7.6,7.6,33,0.00,,---,0.00,VWS V14.01,2013-05-26 16:35:00,
2013-05-26 12:40:00,65.5,35.6,30.06,NNW,330,0.0,3.6,33,0.00,,---,0.00,VWS V14.01,2013-05-26 16:40:00,
2013-05-26 12:45:00,65.7,35.8,30.06,South,191,0.0,2.7,33,0.00,,---,0.00,VWS V14.01,2013-05-26 16:45:00,
2013-05-26 12:50:00,65.5,35.6,30.06,SW,214,5.4,11.0,33,0.00,,---,0.00,VWS V14.01,2013-05-26 16:50:00,
2013-05-26 12:55:00,65.5,35.6,30.06,WSW,251,6.3,6.3,33,0.00,,---,0.00,VWS V14.01,2013-05-26 16:55:00,
2013-05-26 13:00:00,65.7,35.8,30.06,SW,236,5.8,5.8,33,0.00,,---,0.00,VWS V14.01,2013-05-26 17:00:00,
2013-05-26 13:05:00,65.5,35.6,30.06,NE,38,4.0,4.0,33,0.00,,---,0.00,VWS V14.01,2013-05-26 17:05:00,
2013-05-26 13:10:00,65.8,36.0,30.06,WSW,252,4.9,5.4,33,0.00,,---,0.00,VWS V14.01,2013-05-26 17:10:00,
2013-05-26 13:15:00,65.8,36.0,30.06,SSW,209,3.1,5.4,33,0.00,,---,0.00,VWS V14.01,2013-05-26 17:15:00,
2013-05-26 13:20:00,65.7,35.8,30.06,NNE,17,5.8,8.3,33,0.00,,---,0.00,VWS V14.01,2013-05-26 17:20:00,
2013-05-26 13:25:00,65.8,36.0,30.06,SE,139,2.7,2.7,33,0.00,,---,0.00,VWS V14.01,2013-05-26 17:25:00,
2013-05-26 13:30:00,66.4,36.4,30.06,SSW,212,5.8,5.8,33,0.00,,---,0.00,VWS V14.01,2013-05-26 17:30:00,
2013-05-26 13:35:00,66.0,36.1,30.06,ENE,68,2.7,2.7,33,0.00,,---,0.00,VWS V14.01,2013-05-26 17:35:00,
2013-05-26 13:40:00,66.0,36.1,30.06,WSW,241,3.1,6.3,33,0.00,,---,0.00,VWS V14.01,2013-05-26 17:40:00,
2013-05-26 13:45:00,65.8,36.0,30.06,SW,223,3.6,5.4,33,0.00,,---,0.00,VWS V14.01,2013-05-26 17:45:00,
2013-05-26 13:50:00,66.2,36.3,30.06,North,5,4.0,8.1,33,0.00,,---,0.00,VWS V14.01,2013-05-26 17:50:00,
2013-05-26 13:55:00,66.4,36.4,30.06,West,269,3.1,4.9,33,0.00,,---,0.00,VWS V14.01,2013-05-26 17:55:00,
2013-05-26 14:00:00,66.4,36.4,30.03,NW,311,4.0,4.0,33,0.00,,---,0.00,VWS V14.01,2013-05-26 18:00:00,
2013-05-26 14:05:00,66.7,36.8,30.03,West,268,0.0,2.7,33,0.00,,---,0.00,VWS V14.01,2013-05-26 18:05:00,
2013-05-26 14:10:00,66.6,36.6,30.03,ENE,70,3.6,4.0,33,0.00,,---,0.00,VWS V14.01,2013-05-26 18:10:00,
2013-05-26 14:15:00,66.4,36.4,30.03,SSW,212,3.6,3.6,33,0.00,,---,0.00,VWS V14.01,2013-05-26 18:15:00,
2013-05-26 14:20:00,66.4,36.4,30.03,WNW,284,3.1,3.1,33,0.00,,---,0.00,VWS V14.01,2013-05-26 18:20:00,
2013-05-26 14:25:00,66.7,36.8,30.03,North,5,0.0,2.7,33,0.00,,---,0.00,VWS V14.01,2013-05-26 18:25:00,
2013-05-26 14:30:00,66.9,36.9,30.03,ENE,61,2.7,5.4,33,0.00,,---,0.00,VWS V14.01,2013-05-26 18:30:00,
2013-05-26 14:35:00,66.7,36.8,30.03,NNW,335,3.6,4.5,33,0.00,,---,0.00,VWS V14.01,2013-05-26 18:35:00,
2013-05-26 14:40:00,66.7,36.8,30.03,NNE,19,3.1,6.3,33,0.00,,---,0.00,VWS V14.01,2013-05-26 18:40:00,
2013-05-26 14:45:00,66.9,36.9,30.03,SW,235,0.0,8.7,33,0.00,,---,0.00,VWS V14.01,2013-05-26 18:45:00,
2013-05-26 14:50:00,66.9,36.9,30.03,WSW,244,2.7,3.6,33,0.00,,---,0.00,VWS V14.01,2013-05-26 18:50:00,
2013-05-26 14:55:00,66.9,36.9,30.03,NNE,31,4.5,4.5,33,0.00,,---,0.00,VWS V14.01,2013-05-26 18:55:00,
2013-05-26 15:00:00,67.1,37.1,30.03,NE,52,5.4,5.4,33,0.00,,---,0.00,VWS V14.01,2013-05-26 19:00:00,
2013-05-26 15:05:00,67.3,37.2,30.03,SW,233,2.2,2.2,33,0.00,,---,0.00,VWS V14.01,2013-05-26 19:05:00,
2013-05-26 15:10:00,67.5,37.4,30.03,NNE,20,2.7,4.0,33,0.00,,---,0.00,VWS V14.01,2013-05-26 19:10:00,
2013-05-26 15:15:00,67.6,37.5,30.03,WSW,245,3.1,3.1,33,0.00,,---,0.00,VWS V14.01,2013-05-26 19:15:00,
2013-05-26 15:20:00,67.8,37.7,30.03,WSW,238,7.6,7.6,33,0.00,,---,0.00,VWS V14.01,2013-05-26 19:20:00,
2013-05-26 15:25:00,67.3,37.2,30.03,SSW,199,0.0,5.8,33,0.00,,---,0.00,VWS V14.01,2013-05-26 19:25:00,
2013-05-26 15:30:00,67.6,37.5,30.03,NNW,344,2.2,2.7,33,0.00,,---,0.00,VWS V14.01,2013-05-26 19:30:00,
2013-05-26 15:35:00,67.8,37.7,30.03,West,275,2.7,3.1,33,0.00,,---,0.00,VWS V14.01,2013-05-26 19:35:00,
2013-05-26 15:40:00,68.0,37.8,30.03,SW,226,2.7,5.4,33,0.00,,---,0.00,VWS V14.01,2013-05-26 19:40:00,
2013-05-26 15:45:00,68.4,38.2,30.03,WSW,254,2.7,4.0,33,0.00,,---,0.00,VWS V14.01,2013-05-26 19:45:00,
2013-05-26 15:50:00,68.7,38.5,30.03,ESE,111,3.1,4.0,33,0.00,,---,0.00,VWS V14.01,2013-05-26 19:50:00,
2013-05-26 15:55:00,68.4,38.2,30.03,NNE,24,4.9,4.9,33,0.00,,---,0.00,VWS V14.01,2013-05-26 19:55:00,
2013-05-26 16:00:00,68.0,37.8,30.03,NW,326,0.0,3.1,33,0.00,,---,0.00,VWS V14.01,2013-05-26 20:00:00,
2013-05-26 16:05:00,68.0,37.8,30.03,NE,42,0.0,0.0,33,0.00,,---,0.00,VWS V14.01,2013-05-26 20:05:00,
2013-05-26 16:10:00,68.0,37.8,30.03,WNW,291,3.6,3.6,33,0.00,,---,0.00,VWS V14.01,2013-05-26 20:10:00,
2013-05-26 16:15:00,68.5,38.3,30.03,SW,214,2.7,5.8,33,0.00,,---,0.00,VWS V14.01,2013-05-26 20:15:00,
2013-05-26 16:20:00,69.4,39.1,30.03,SSW,193,4.9,8.3,33,0.00,,---,0.00,VWS V14.01,2013-05-26 20:20:00,
2013-05-26 16:25:00,69.6,39.3,30.03,WSW,238,3.1,4.0,33,0.00,,---,0.00,VWS V14.01,2013-05-26 20:25:00,
2013-05-26 16:30:00,68.9,38.6,30.06,WNW,300,2.7,3.6,33,0.00,,---,0.00,VWS V14.01,2013-05-26 20:30:00,
2013-05-26 16:35:00,68.5,38.3,30.06,WSW,241,8.1,8.1,33,0.00,,---,0.00,VWS V14.01,2013-05-26 20:35:00,
2013-05-26 16:40:00,68.7,38.5,30.06,WSW,249,6.3,6.3,33,0.00,,---,0.00,VWS V14.01,2013-05-26 20:40:00,
2013-05-26 16:45:00,69.3,39.0,30.06,North,1,3.1,3.1,33,0.00,,---,0.00,VWS V14.01,2013-05-26 20:45:00,
2013-05-26 16:50:00,70.2,39.0,30.06,North,4,4.9,4.9,32,0.00,,---,0.00,VWS V14.01,2013-05-26 20:50:00,
2013-05-26 16:55:00,71.4,40.0,30.06,WNW,299,3.1,3.1,32,0.00,,---,0.00,VWS V14.01,2013-05-26 20:55:00,
2013-05-26 17:00:00,70.0,38.8,30.06,ENE,67,3.1,3.1,32,0.00,,---,0.00,VWS V14.01,2013-05-26 21:00:00,
2013-05-26 17:05:00,69.1,38.8,30.06,WNW,285,4.9,4.9,33,0.00,,---,0.00,VWS V14.01,2013-05-26 21:05:00,
2013-05-26 17:10:00,69.1,38.8,30.06,North,3,2.2,3.6,33,0.00,,---,0.00,VWS V14.01,2013-05-26 21:10:00,
2013-05-26 17:15:00,68.5,38.3,30.06,WNW,285,2.2,2.7,33,0.00,,---,0.00,VWS V14.01,2013-05-26 21:15:00,
2013-05-26 17:20:00,68.0,37.8,30.06,NE,46,4.9,4.9,33,0.00,,---,0.00,VWS V14.01,2013-05-26 21:20:00,
2013-05-26 17:25:00,68.0,37.8,30.06,NNE,29,2.2,2.2,33,0.00,,---,0.00,VWS V14.01,2013-05-26 21:25:00,
2013-05-26 17:30:00,68.4,38.2,30.06,WNW,301,5.4,5.4,33,0.00,,---,0.00,VWS V14.01,2013-05-26 21:30:00,
2013-05-26 17:35:00,68.4,38.2,30.06,NNW,345,3.6,8.3,33,0.00,,---,0.00,VWS V14.01,2013-05-26 21:35:00,
2013-05-26 17:40:00,67.5,37.4,30.06,ENE,61,4.0,4.0,33,0.00,,---,0.00,VWS V14.01,2013-05-26 21:40:00,
2013-05-26 17:45:00,66.9,36.9,30.06,North,357,3.6,3.6,33,0.00,,---,0.00,VWS V14.01,2013-05-26 21:45:00,
2013-05-26 17:50:00,66.6,36.6,30.06,NW,324,2.2,2.2,33,0.00,,---,0.00,VWS V14.01,2013-05-26 21:50:00,
2013-05-26 17:55:00,66.6,36.6,30.06,NNE,29,0.0,2.2,33,0.00,,---,0.00,VWS V14.01,2013-05-26 21:55:00,
2013-05-26 18:00:00,66.4,36.4,30.06,West,275,0.0,0.0,33,0.00,,---,0.00,VWS V14.01,2013-05-26 22:00:00,
2013-05-26 18:05:00,66.2,36.3,30.06,WNW,295,0.0,0.0,33,0.00,,---,0.00,VWS V14.01,2013-05-26 22:05:00,
2013-05-26 18:10:00,66.0,36.1,30.06,NW,317,0.0,0.0,33,0.00,,---,0.00,VWS V14.01,2013-05-26 22:10:00,
2013-05-26 18:15:00,66.0,36.1,30.06,NE,41,3.6,3.6,33,0.00,,---,0.00,VWS V14.01,2013-05-26 22:15:00,
2013-05-26 18:20:00,65.8,36.0,30.06,North,353,0.0,0.0,33,0.00,,---,0.00,VWS V14.01,2013-05-26 22:20:00,
2013-05-26 18:25:00,65.7,35.8,30.06,North,2,3.1,8.7,33,0.00,,---,0.00,VWS V14.01,2013-05-26 22:25:00,
2013-05-26 18:30:00,65.7,35.8,30.06,North,349,0.0,0.0,33,0.00,,---,0.00,VWS V14.01,2013-05-26 22:30:00,
2013-05-26 18:35:00,65.5,35.6,30.06,North,2,2.2,2.7,33,0.00,,---,0.00,VWS V14.01,2013-05-26 22:35:00,
2013-05-26 18:40:00,65.3,35.5,30.06,NE,37,0.0,0.0,33,0.00,,---,0.00,VWS V14.01,2013-05-26 22:40:00,
2013-05-26 18:45:00,64.9,35.2,30.09,NNE,15,0.0,0.0,33,0.00,,---,0.00,VWS V14.01,2013-05-26 22:45:00,
2013-05-26 18:50:00,64.9,35.2,30.09,North,0,0.0,0.0,33,0.00,,---,0.00,VWS V14.01,2013-05-26 22:50:00,
2013-05-26 18:55:00,64.6,34.8,30.09,NNW,328,0.0,0.0,33,0.00,,---,0.00,VWS V14.01,2013-05-26 22:55:00,
2013-05-26 19:00:00,64.6,34.8,30.09,North,11,2.7,2.7,33,0.00,,---,0.00,VWS V14.01,2013-05-26 23:00:00,
2013-05-26 19:05:00,64.4,34.7,30.09,NNE,22,0.0,0.0,33,0.00,,---,0.00,VWS V14.01,2013-05-26 23:05:00,
2013-05-26 19:10:00,64.0,35.1,30.09,ESE,106,0.0,0.0,34,0.00,,---,0.00,VWS V14.01,2013-05-26 23:10:00,
2013-05-26 19:15:00,63.9,35.0,30.09,North,3,0.0,0.0,34,0.00,,---,0.00,VWS V14.01,2013-05-26 23:15:00,
2013-05-26 19:20:00,63.5,34.7,30.09,North,3,0.0,0.0,34,0.00,,---,0.00,VWS V14.01,2013-05-26 23:20:00,
2013-05-26 19:25:00,63.0,34.2,30.09,NNW,345,0.0,2.2,34,0.00,,---,0.00,VWS V14.01,2013-05-26 23:25:00,
2013-05-26 19:30:00,62.4,33.7,30.09,NNW,345,0.0,0.0,34,0.00,,---,0.00,VWS V14.01,2013-05-26 23:30:00,
2013-05-26 19:35:00,62.1,33.4,30.09,NNW,345,0.0,0.0,34,0.00,,---,0.00,VWS V14.01,2013-05-26 23:35:00,
2013-05-26 19:40:00,61.9,33.2,30.09,NW,321,0.0,0.0,34,0.00,,---,0.00,VWS V14.01,2013-05-26 23:40:00,
2013-05-26 19:45:00,62.1,33.4,30.09,NW,324,0.0,0.0,34,0.00,,---,0.00,VWS V14.01,2013-05-26 23:45:00,
2013-05-26 19:50:00,62.1,33.4,30.09,NW,324,0.0,0.0,34,0.00,,---,0.00,VWS V14.01,2013-05-26 23:50:00,
2013-05-26 19:55:00,61.5,32.9,30.09,NW,324,0.0,0.0,34,0.00,,---,0.00,VWS V14.01,2013-05-26 23:55:00,
2013-05-26 20:00:00,60.8,32.3,30.12,NW,324,0.0,0.0,34,0.00,,---,0.00,VWS V14.01,2013-05-27 00:00:00,
2013-05-26 20:05:00,60.6,32.8,30.12,NW,324,0.0,0.0,35,0.00,,---,0.00,VWS V14.01,2013-05-27 00:05:00,
2013-05-26 20:10:00,60.3,32.5,30.12,NW,324,0.0,0.0,35,0.00,,---,0.00,VWS V14.01,2013-05-27 00:10:00,
2013-05-26 20:15:00,59.5,31.9,30.12,NW,324,0.0,0.0,35,0.00,,---,0.00,VWS V14.01,2013-05-27 00:15:00,
2013-05-26 20:20:00,58.8,31.2,30.12,NW,324,0.0,0.0,35,0.00,,---,0.00,VWS V14.01,2013-05-27 00:20:00,
2013-05-26 20:25:00,57.9,30.5,30.12,NW,324,0.0,0.0,35,0.00,,---,0.00,VWS V14.01,2013-05-27 00:25:00,
2013-05-26 20:30:00,56.8,29.5,30.12,NW,324,0.0,0.0,35,0.00,,---,0.00,VWS V14.01,2013-05-27 00:30:00,
2013-05-26 20:35:00,56.3,29.0,30.12,NW,324,0.0,0.0,35,0.00,,---,0.00,VWS V14.01,2013-05-27 00:35:00,
2013-05-26 20:40:00,55.8,28.5,30.12,NW,324,0.0,0.0,35,0.00,,---,0.00,VWS V14.01,2013-05-27 00:40:00,
2013-05-26 20:45:00,55.2,28.8,30.12,NW,324,0.0,0.0,36,0.00,,---,0.00,VWS V14.01,2013-05-27 00:45:00,
2013-05-26 20:50:00,54.9,28.4,30.12,NW,324,0.0,0.0,36,0.00,,---,0.00,VWS V14.01,2013-05-27 00:50:00,
2013-05-26 20:55:00,54.5,28.1,30.12,NW,324,0.0,0.0,36,0.00,,---,0.00,VWS V14.01,2013-05-27 00:55:00,
2013-05-26 21:00:00,54.5,28.1,30.15,NW,324,0.0,0.0,36,0.00,,---,0.00,VWS V14.01,2013-05-27 01:00:00,
2013-05-26 21:05:00,54.3,28.0,30.15,NW,324,0.0,0.0,36,0.00,,---,0.00,VWS V14.01,2013-05-27 01:05:00,
2013-05-26 21:10:00,54.0,27.6,30.15,NW,324,0.0,0.0,36,0.00,,---,0.00,VWS V14.01,2013-05-27 01:10:00,
2013-05-26 21:15:00,53.4,27.1,30.15,NW,324,0.0,0.0,36,0.00,,---,0.00,VWS V14.01,2013-05-27 01:15:00,
2013-05-26 21:20:00,53.1,26.8,30.15,NW,324,0.0,0.0,36,0.00,,---,0.00,VWS V14.01,2013-05-27 01:20:00,
2013-05-26 21:25:00,52.7,26.5,30.15,NW,324,0.0,0.0,36,0.00,,---,0.00,VWS V14.01,2013-05-27 01:25:00,
2013-05-26 21:30:00,52.3,26.2,30.15,NW,324,0.0,0.0,36,0.00,,---,0.00,VWS V14.01,2013-05-27 01:30:00,
2013-05-26 21:35:00,51.8,25.7,30.15,NW,324,0.0,0.0,36,0.00,,---,0.00,VWS V14.01,2013-05-27 01:35:00,
2013-05-26 21:40:00,51.6,26.2,30.15,NW,324,0.0,0.0,37,0.00,,---,0.00,VWS V14.01,2013-05-27 01:40:00,
2013-05-26 21:45:00,51.3,25.9,30.15,NW,324,0.0,0.0,37,0.00,,---,0.00,VWS V14.01,2013-05-27 01:45:00,
2013-05-26 21:50:00,51.1,25.7,30.15,NW,324,0.0,0.0,37,0.00,,---,0.00,VWS V14.01,2013-05-27 01:50:00,
2013-05-26 21:55:00,50.9,25.6,30.15,NW,324,0.0,0.0,37,0.00,,---,0.00,VWS V14.01,2013-05-27 01:55:00,
2013-05-26 22:00:00,50.7,25.4,30.18,NW,324,0.0,0.0,37,0.00,,---,0.00,VWS V14.01,2013-05-27 02:00:00,
2013-05-26 22:05:00,50.5,25.2,30.18,NW,324,0.0,0.0,37,0.00,,---,0.00,VWS V14.01,2013-05-27 02:05:00,
2013-05-26 22:10:00,50.5,25.2,30.18,NW,324,0.0,0.0,37,0.00,,---,0.00,VWS V14.01,2013-05-27 02:10:00,
2013-05-26 22:15:00,50.2,24.9,30.18,NW,324,0.0,0.0,37,0.00,,---,0.00,VWS V14.01,2013-05-27 02:15:00,
2013-05-26 22:20:00,50.2,24.9,30.18,NW,324,0.0,0.0,37,0.00,,---,0.00,VWS V14.01,2013-05-27 02:20:00,
2013-05-26 22:25:00,50.0,24.8,30.18,NW,324,0.0,0.0,37,0.00,,---,0.00,VWS V14.01,2013-05-27 02:25:00,
2013-05-26 22:30:00,49.8,24.6,30.18,NW,324,0.0,0.0,37,0.00,,---,0.00,VWS V14.01,2013-05-27 02:30:00,
2013-05-26 22:35:00,49.5,24.3,30.18,NW,324,0.0,0.0,37,0.00,,---,0.00,VWS V14.01,2013-05-27 02:35:00,
2013-05-26 22:40:00,49.5,24.3,30.18,NW,324,0.0,0.0,37,0.00,,---,0.00,VWS V14.01,2013-05-27 02:40:00,
2013-05-26 22:45:00,49.3,24.1,30.18,NW,324,0.0,0.0,37,0.00,,---,0.00,VWS V14.01,2013-05-27 02:45:00,
2013-05-26 22:50:00,49.3,24.1,30.18,NW,324,0.0,0.0,37,0.00,,---,0.00,VWS V14.01,2013-05-27 02:50:00,
2013-05-26 22:55:00,48.9,23.8,30.18,NW,324,0.0,0.0,37,0.00,,---,0.00,VWS V14.01,2013-05-27 02:55:00,
2013-05-26 23:00:00,48.7,23.6,30.18,NW,324,0.0,0.0,37,0.00,,---,0.00,VWS V14.01,2013-05-27 03:00:00,
2013-05-26 23:05:00,48.7,23.6,30.18,NW,324,0.0,0.0,37,0.00,,---,0.00,VWS V14.01,2013-05-27 03:05:00,
2013-05-26 23:10:00,48.6,23.5,30.18,NW,324,0.0,0.0,37,0.00,,---,0.00,VWS V14.01,2013-05-27 03:10:00,
2013-05-26 23:15:00,48.4,23.3,30.21,NW,324,0.0,0.0,37,0.00,,---,0.00,VWS V14.01,2013-05-27 03:15:00,
2013-05-26 23:20:00,48.2,23.2,30.21,NW,324,0.0,0.0,37,0.00,,---,0.00,VWS V14.01,2013-05-27 03:20:00,
2013-05-26 23:25:00,48.2,23.2,30.21,NW,324,0.0,0.0,37,0.00,,---,0.00,VWS V14.01,2013-05-27 03:25:00,
2013-05-26 23:30:00,47.8,23.5,30.21,NW,324,0.0,0.0,38,0.00,,---,0.00,VWS V14.01,2013-05-27 03:30:00,
2013-05-26 23:35:00,47.7,23.3,30.21,NW,324,0.0,0.0,38,0.00,,---,0.00,VWS V14.01,2013-05-27 03:35:00,
2013-05-26 23:40:00,47.8,23.5,30.21,NW,324,0.0,0.0,38,0.00,,---,0.00,VWS V14.01,2013-05-27 03:40:00,
2013-05-26 23:45:00,47.7,23.3,30.21,NW,324,0.0,0.0,38,0.00,,---,0.00,VWS V14.01,2013-05-27 03:45:00,
2013-05-26 23:49:00,47.3,23.0,30.21,NW,324,0.0,0.0,38,0.00,,---,0.00,VWS V14.01,2013-05-27 03:49:00,
2013-05-26 23:54:00,47.3,23.0,30.21,NW,324,0.0,0.0,38,0.00,,---,0.00,VWS V14.01,2013-05-27 03:54:00,
2013-05-26 23:59:00,47.3,23.0,30.21,NW,324,0.0,0.0,38,0.00,,---,0.00,VWS V14.01,2013-05-27 03:59:00,